Weather in Arsenyevo

Russia / Khabarovsk Krai     49°12′56″N   137°04′31″E
temp.,
°C
wind,
m/s
gust,
m/s
humid.,
%
clouds,
%
prec.,
mm/h
press.,
hPa
HPBL,
m
15 may, sat
sat1501:00+11ese2467100 0.0 100963
04:00+11ese3566100 0.0 100790
07:00+12ese3862100 0.0 1004145
10:00+14sse31161100 0.2 10031317
13:00+11se21091100 2.3 1000677
16:00+12s61488100 10.6 997929
19:00+12sw71392100 4.3 999982
22:00+10ssw6148920 5.6 1000552
16 may, sun
sun1601:00+9sw716894 0.2 999773
04:00+9sw7178392 0.2 9981105
07:00+10sw81675100 0.1 9991497
10:00+14wsw7136312 0.2 9991580
13:00+17wsw8135118 0.4 9991926
16:00+16wsw7135262 0.6 9992324
19:00+15wsw5105444 0.1 9991112
22:00+10ssw310815 0.1 1000209
17 may, mon
mon1701:00+8ssw25860 0.0 1001103
04:00+7ssw24900 0.0 100182
07:00+10s24710 0.0 1001195
10:00+17sw47440 0.0 1001817
13:00+22sw58310 0.0 9991655
16:00+23sw611290 0.0 9982794
19:00+20sw511450 0.0 9981315
22:00+15ssw414585 0.0 1000437
18 may, tue
tue1801:00+12ssw396794 0.0 1001219
04:00+13ssw396387 0.0 1001235
07:00+14s28645 0.0 1001231
10:00+20ssw61048100 0.0 10001080
13:00+24wsw61338100 0.0 9992031
16:00+27sw71632100 0.0 9972940
19:00+24sw716375 0.0 9961709
22:00+21ssw718385 0.1 9971185
19 may, wed
wed1901:00+17sw413545 0.3 998546
04:00+12sw369640 0.7 1001195
07:00+13sw388886 0.3 1003570
10:00+17wsw586221 0.3 10051154
13:00+19w6924100 0.0 10062212
16:00+20w59219 0.0 10072551
19:00+17w2633100 0.0 1009224
22:00+11s22514 0.0 101113